Погода в Боджнурде

Иран     37°27′55″N   57°19′36″E
темп.,
°C
ветер,
м/с
пор.,
м/с
влажн.,
%
обл.,
%
осадки,
мм/ч
давл.,
гПа
погр.,
м
23 апреля, пт
пт2301:30+18вюв224211 0.0 101722
04:30+16вюв334566 0.0 101742
07:30+17вюв3340100 0.0 1018102
10:30+23в222610 0.0 1016639
13:30+27с331847 0.0 10141938
16:30+23зсз91039100 0.0 1016993
19:30+17зсз5861100 0.1 1020693
22:30+13зсз567698 0.3 1022420
24 апреля, сб
сб2401:30+11зсз468896 0.0 1022453
04:30+9сз3493100 0.1 1023449
07:30+10сз118380 0.0 1023339
10:30+15вюв3359100 0.0 1021440
13:30+22в333398 0.0 1016971
16:30+23с323299 0.8 1015796
19:30+19зсз1248100 0.9 101688
22:30+18св0154100 0.9 101613
25 апреля, вс
вс2501:30+16ссз116075 0.0 101715
04:30+15ссз126596 0.0 101834
07:30+14сз2263100 0.0 1020214
10:30+18вюв224299 0.0 1019389
13:30+22всв3329100 0.0 1017545
16:30+24св232779 0.0 10161440
19:30+20св12395 0.0 101624
22:30+17в11455 0.0 101711
26 апреля, пн
пн2601:30+16юв22422 0.0 101616
04:30+16юв23405 0.0 101619
07:30+18юв343321 0.0 1016130
10:30+25вюв451811 0.0 10141027
13:30+28ююв3415100 0.0 10112526
16:30+29зюз1315100 0.0 10093392
19:30+24зсз012343 0.0 100911
22:30+23ююв2222100 0.0 101011
27 апреля, вт
вт2701:30+21вюв332588 0.0 101024
04:30+20юв332652 0.0 101027
07:30+21юв34254 0.0 101299
10:30+28вюв23154 0.0 10101327
13:30+31с131343 0.0 10094137
16:30+29зсз9817100 0.0 10092952
19:30+20ссз344718 0.3 1014319
22:30+19сз335068 0.3 101547